Location: Fredericton
(45.9636°N, 66.6431°W)
Time: 10:29:30
(UTC-03:00)

Envisat - Pass Details

Date: 23 January 2022
Orbit: 764 x 765 km, 98.2° (Epoch: 17 May)

Event Time Altitude Azimuth Distance (km) Brightness Sun altitude
Rises 07:09:41 0° 357° (N) 3,242 6.0 -8.6°
Reaches altitude 10° 07:13:08 10° 333° (NNW) 2,310 5.1 -8.0°
Maximum altitude 07:15:35 14° 303° (WNW) 2,058 4.6 -7.6°
Drops below altitude 10° 07:18:02 10° 274° (W) 2,304 4.9 -7.2°
Sets 07:21:28 0° 250° (WSW) 3,226 5.8 -6.7°
